Location: El Abasto
(10.3790°N, 67.5897°W)
Time: 18:00:54
(UTC+00:00)

Okean 1-7 Rocket - Pass Details

Date: 19 May 2024
Orbit: 613 x 646 km, 82.5° (Epoch: 12 June)

Event Time Altitude Azimuth Distance (km) Brightness Sun altitude
Rises 23:01:35 0° 3° (N) 2,905 7.3 -4.4°
Reaches altitude 10° 23:03:52 10° 8° (N) 1,993 6.4 -5.0°
Maximum altitude 23:08:11 53° 85° (E) 761 3.7 -6.0°
Drops below altitude 10° 23:12:27 10° 163° (SSE) 1,976 5.8 -6.9°
Sets 23:14:42 0° 167° (SSE) 2,877 6.6 -7.4°
